This demonstration page uses our WeatherBlox Daily Observations layout. Learn more.

Left ArrowRight Arrow

Hourly Observations for June 16, 2020

Temp ( °F °C ) Dew Point ( °F °C ) Humidity (%) Winds ( mph kmh ) Pressure ( in mb ) Visibility ( mi km ) Precip ( " mm )
12:53 am 00:53 Mostly Cloudy 54 12.2 50 10 87 87 SSW 8 13 29.82 1010 10 16 0.03 0.76
1:53 am 01:53 Clear 50 10 48 8.9 93 93 W 5 7 29.82 1010 10 16 N/A
2:53 am 02:53 Mostly Clear 49 9.4 47 8.3 93 93 SW 8 13 29.80 1009 10 16 N/A
3:53 am 03:53 Clear 51 10.6 47 8.3 86 86 SW 10 17 29.80 1009 10 16 N/A
4:53 am 04:53 Mostly Cloudy 50 10 47 8.3 89 89 SW 8 13 29.80 1009 10 16 N/A
5:53 am 05:53 Cloudy 51 10.6 49 9.4 92 92 WSW 8 13 29.78 1009 10 16 N/A
6:53 am 06:53 Cloudy 52 11.1 50 10 93 93 SW 5 7 29.79 1009 10 16 N/A
7:53 am 07:53 Cloudy with Light Rain 54 12.2 49 9.4 83 83 SW 3 6 29.81 1009 10 16 0.00 0.00
8:53 am 08:53 Cloudy with Light Rain 54 12.2 48 8.9 80 80 W 6 9 29.83 1010 9 14 0.02 0.51
9:53 am 09:53 Cloudy with Light Rain 54 12.2 47 8.3 77 77 WSW 5 7 29.84 1011 10 16 0.03 0.76
10:53 am 10:53 Cloudy with Light Rain 55 12.8 47 8.3 74 74 SW 5 7 29.83 1010 10 16 0.02 0.51
11:53 am 11:53 Cloudy with Light Rain 55 12.8 46 7.8 72 72 N N/A 29.82 1010 10 16 0.00 0.00
12:53 pm 12:53 Cloudy with Light Rain 55 12.8 48 8.9 77 77 S 6 9 29.82 1010 10 16 0.00 0.00
1:53 pm 13:53 Cloudy with Light Rain 55 12.8 48 8.9 77 77 S 7 11 29.82 1010 10 16 0.02 0.51
2:53 pm 14:53 Cloudy 57 13.9 46 7.8 67 67 S 6 9 29.81 1010 10 16 0.01 0.25
3:53 pm 15:53 Cloudy with Light Rain 57 13.9 49 9.4 74 74 S 8 13 29.81 1009 10 16 0.01 0.25
4:53 pm 16:53 Cloudy 61 16.1 50 10 67 67 SW 17 28 29.79 1009 10 16 0.00 0.00
5:53 pm 17:53 Cloudy 61 16.1 48 8.9 63 63 SSW 14 22 29.79 1009 10 16 N/A
6:53 pm 18:53 Cloudy 61 16.1 46 7.8 58 58 SSW 14 22 29.78 1009 10 16 N/A
7:53 pm 19:53 Mostly Cloudy 64 17.8 46 7.8 52 52 WSW 14 22 29.78 1008 10 16 N/A
8:53 pm 20:53 Cloudy 61 16.1 48 8.9 63 63 SW 14 22 29.79 1009 10 16 N/A
9:53 pm 21:53 Cloudy 58 14.4 48 8.9 70 70 SSW 16 26 29.82 1010 10 16 N/A
10:53 pm 22:53 Cloudy 58 14.4 48 8.9 70 70 WSW 9 15 29.82 1010 10 16 N/A
11:53 pm 23:53 Cloudy 57 13.9 48 8.9 72 72 WSW 8 13 29.80 1009 10 16 N/A

Powered by AerisWeather